TimeCDT,TemperatureF,Dew PointF,Humidity,Sea Level PressureIn,VisibilityMPH,Wind Direction,Wind SpeedMPH,Gust SpeedMPH,PrecipitationIn,Events,Conditions,WindDirDegrees,DateUTC
12:11 AM,50.0,44.6,82,29.90,10.0,Calm,Calm,-,N/A,,Clear,0,2012-10-22 05:11:00
12:32 AM,48.2,44.6,87,29.90,10.0,Calm,Calm,-,N/A,,Clear,0,2012-10-22 05:32:00
12:52 AM,50.0,44.6,82,29.90,10.0,Calm,Calm,-,N/A,,Clear,0,2012-10-22 05:52:00
1:11 AM,48.2,44.6,87,29.91,10.0,NW,6.9,-,N/A,,Scattered Clouds,320,2012-10-22 06:11:00
1:32 AM,50.0,44.6,82,29.91,10.0,Calm,Calm,-,N/A,,Mostly Cloudy,0,2012-10-22 06:32:00
1:52 AM,50.0,44.6,82,29.91,10.0,Calm,Calm,-,N/A,,Scattered Clouds,0,2012-10-22 06:52:00
2:11 AM,48.2,44.6,87,29.91,10.0,Calm,Calm,-,N/A,,Scattered Clouds,0,2012-10-22 07:11:00
2:32 AM,46.4,42.8,87,29.91,10.0,Calm,Calm,-,N/A,,Mostly Cloudy,0,2012-10-22 07:32:00
2:52 AM,48.2,44.6,87,29.90,10.0,Calm,Calm,-,N/A,,Mostly Cloudy,0,2012-10-22 07:52:00
3:11 AM,48.2,44.6,87,29.90,10.0,Calm,Calm,-,N/A,,Mostly Cloudy,0,2012-10-22 08:11:00
3:52 AM,48.2,44.6,87,29.89,10.0,Calm,Calm,-,N/A,,Mostly Cloudy,0,2012-10-22 08:52:00
4:11 AM,50.0,44.6,82,29.89,10.0,Calm,Calm,-,N/A,,Mostly Cloudy,0,2012-10-22 09:11:00
4:32 AM,46.4,44.6,93,29.89,10.0,Calm,Calm,-,N/A,,Overcast,0,2012-10-22 09:32:00
4:52 AM,48.2,44.6,87,29.89,10.0,Calm,Calm,-,N/A,,Mostly Cloudy,0,2012-10-22 09:52:00
5:11 AM,48.2,44.6,87,29.89,10.0,Calm,Calm,-,N/A,,Mostly Cloudy,0,2012-10-22 10:11:00
5:32 AM,48.2,44.6,87,29.90,10.0,Calm,Calm,-,N/A,,Mostly Cloudy,0,2012-10-22 10:32:00
5:51 AM,50.0,46.4,87,29.89,10.0,Calm,Calm,-,N/A,,Mostly Cloudy,0,2012-10-22 10:51:00
6:12 AM,50.0,44.6,82,29.89,10.0,Calm,Calm,-,N/A,,Overcast,0,2012-10-22 11:12:00
6:31 AM,51.8,46.4,82,29.90,10.0,Calm,Calm,-,N/A,,Overcast,0,2012-10-22 11:31:00
7:12 AM,50.0,44.6,82,29.90,10.0,Calm,Calm,-,N/A,,Overcast,0,2012-10-22 12:12:00
7:31 AM,51.8,46.4,82,29.91,10.0,Calm,Calm,-,N/A,,Overcast,0,2012-10-22 12:31:00
7:52 AM,51.8,46.4,82,29.91,10.0,Calm,Calm,-,N/A,,Mostly Cloudy,0,2012-10-22 12:52:00
8:12 AM,51.8,46.4,82,29.91,10.0,Calm,Calm,-,N/A,,Mostly Cloudy,0,2012-10-22 13:12:00
8:31 AM,51.8,46.4,82,29.91,10.0,Calm,Calm,-,N/A,,Mostly Cloudy,0,2012-10-22 13:31:00
8:52 AM,51.8,46.4,82,29.90,10.0,Calm,Calm,-,N/A,,Mostly Cloudy,0,2012-10-22 13:52:00
9:12 AM,53.6,46.4,77,29.91,10.0,SSE,4.6,-,N/A,,Mostly Cloudy,150,2012-10-22 14:12:00
9:31 AM,53.6,46.4,77,29.91,10.0,Calm,Calm,-,N/A,,Overcast,0,2012-10-22 14:31:00
9:52 AM,53.6,46.4,77,29.91,10.0,Calm,Calm,-,N/A,,Overcast,0,2012-10-22 14:52:00
10:12 AM,53.6,46.4,77,29.91,10.0,Calm,Calm,-,N/A,,Overcast,0,2012-10-22 15:12:00
10:31 AM,53.6,46.4,77,29.91,10.0,Calm,Calm,-,N/A,,Overcast,0,2012-10-22 15:31:00
10:52 AM,53.6,46.4,77,29.90,10.0,Calm,Calm,-,N/A,,Overcast,0,2012-10-22 15:52:00
11:12 AM,53.6,46.4,77,29.91,7.0,Calm,Calm,-,N/A,Rain,Light Rain,0,2012-10-22 16:12:00
11:32 AM,53.6,48.2,82,29.93,10.0,Calm,Calm,-,N/A,,Overcast,0,2012-10-22 16:32:00
11:52 AM,53.6,50.0,88,29.92,10.0,NE,3.5,-,N/A,Rain,Light Rain,50,2012-10-22 16:52:00
12:11 PM,53.6,50.0,88,29.92,10.0,NNE,3.5,-,N/A,,Overcast,20,2012-10-22 17:11:00
12:32 PM,53.6,48.2,82,29.92,10.0,NW,3.5,-,N/A,Rain,Light Rain,320,2012-10-22 17:32:00
12:52 PM,57.2,50.0,77,29.91,10.0,Calm,Calm,-,N/A,,Overcast,0,2012-10-22 17:52:00
1:11 PM,57.2,50.0,77,29.89,10.0,Calm,Calm,-,N/A,,Overcast,0,2012-10-22 18:11:00
1:32 PM,57.2,50.0,77,29.88,10.0,Calm,Calm,-,N/A,,Overcast,0,2012-10-22 18:32:00
1:52 PM,59.0,50.0,72,29.87,10.0,ENE,6.9,-,N/A,,Overcast,70,2012-10-22 18:52:00
2:11 PM,59.0,50.0,72,29.87,10.0,Calm,Calm,-,N/A,,Overcast,0,2012-10-22 19:11:00
2:32 PM,62.6,50.0,63,29.86,10.0,East,4.6,-,N/A,Thunderstorm,Overcast,90,2012-10-22 19:32:00
2:52 PM,62.6,50.0,63,29.86,10.0,East,4.6,-,N/A,,Mostly Cloudy,80,2012-10-22 19:52:00
3:11 PM,62.6,50.0,63,29.87,10.0,Calm,Calm,-,N/A,,Overcast,0,2012-10-22 20:11:00
3:32 PM,62.6,50.0,63,29.87,10.0,East,5.8,-,N/A,,Overcast,80,2012-10-22 20:32:00
3:51 PM,62.6,50.0,63,29.87,10.0,ENE,5.8,-,N/A,,Overcast,70,2012-10-22 20:51:00
4:12 PM,64.4,50.0,59,29.87,10.0,East,10.4,-,N/A,,Overcast,80,2012-10-22 21:12:00
4:31 PM,62.6,48.2,59,29.87,10.0,East,8.1,-,N/A,,Overcast,80,2012-10-22 21:31:00
4:52 PM,62.6,48.2,59,29.87,10.0,NE,5.8,-,N/A,Thunderstorm,Overcast,50,2012-10-22 21:52:00
5:12 PM,62.6,50.0,63,29.88,10.0,East,5.8,-,N/A,,Overcast,80,2012-10-22 22:12:00
5:31 PM,60.8,46.4,59,29.88,10.0,ENE,4.6,-,N/A,,Overcast,70,2012-10-22 22:31:00
5:52 PM,60.8,46.4,59,29.88,10.0,East,5.8,-,N/A,,Overcast,80,2012-10-22 22:52:00
6:11 PM,59.0,46.4,63,29.89,10.0,East,6.9,-,N/A,,Overcast,100,2012-10-22 23:11:00
6:32 PM,59.0,46.4,63,29.90,10.0,East,3.5,-,N/A,Thunderstorm,Overcast,100,2012-10-22 23:32:00
6:52 PM,59.0,48.2,67,29.90,10.0,East,5.8,-,N/A,,Overcast,90,2012-10-22 23:52:00
7:11 PM,59.0,46.4,63,29.91,10.0,ESE,4.6,-,N/A,,Overcast,110,2012-10-23 00:11:00
7:32 PM,59.0,48.2,67,29.91,10.0,ESE,6.9,-,N/A,,Overcast,120,2012-10-23 00:32:00
7:51 PM,59.0,48.2,67,29.91,10.0,Calm,Calm,-,N/A,,Overcast,0,2012-10-23 00:51:00
8:52 PM,57.2,50.0,77,29.91,10.0,ESE,8.1,-,N/A,,Overcast,120,2012-10-23 01:52:00
9:12 PM,57.2,50.0,77,29.91,10.0,ESE,8.1,-,N/A,,Overcast,120,2012-10-23 02:12:00
9:32 PM,57.2,50.0,77,29.91,10.0,ESE,10.4,-,N/A,,Overcast,110,2012-10-23 02:32:00
9:51 PM,57.2,50.0,77,29.91,10.0,ESE,5.8,-,N/A,,Overcast,120,2012-10-23 02:51:00
10:12 PM,57.2,50.0,77,29.91,10.0,ESE,8.1,-,N/A,,Overcast,120,2012-10-23 03:12:00
10:32 PM,57.2,50.0,77,29.91,10.0,SE,6.9,-,N/A,,Overcast,130,2012-10-23 03:32:00
10:52 PM,57.2,50.0,77,29.90,10.0,ESE,5.8,-,N/A,,Overcast,120,2012-10-23 03:52:00
11:12 PM,57.2,50.0,77,29.89,10.0,ESE,6.9,-,N/A,,Overcast,110,2012-10-23 04:12:00
11:32 PM,57.2,50.0,77,29.88,10.0,ESE,5.8,-,N/A,,Overcast,110,2012-10-23 04:32:00